PGT2DK LTBJ-LTCO

Flight info

Callsign PGT2DK
Flight time N/A
Altitude 39000
Route KULAR UT54 KFK UR32 HAY UT54 SIV UA4 ERZ UL851 INBAT
Aircraft A20N/M-SDE2E3FGHIRWXY/LB1

Departure

Time 2026-05-07 17:03
Airport Adnan Menderes International Airport (LTBJ)

Arrival

Time N/A
Airport Ağrı Airport (LTCO)
Time Latitude Longitude Altitude Speed Heading
2026-05-07 16:46 38.29093 27.15074 413 ft 0 kts 257°
2026-05-07 16:54 38.29094 27.15081 417 ft 2 kts 254°
2026-05-07 16:55 38.29098 27.15102 414 ft 2 kts 256°
2026-05-07 16:55 38.29102 27.15122 421 ft 2 kts 256°
2026-05-07 16:55 38.29106 27.15142 414 ft 2 kts 251°
2026-05-07 16:55 38.29114 27.15161 417 ft 2 kts 232°
2026-05-07 16:56 38.29125 27.15175 410 ft 2 kts 217°
2026-05-07 16:56 38.29139 27.15185 415 ft 2 kts 193°
2026-05-07 16:56 38.29147 27.15187 412 ft 0 kts 174°
2026-05-07 16:57 38.29152 27.15186 413 ft 0 kts 166°
2026-05-07 16:59 38.29144 27.15188 415 ft 4 kts 166°
2026-05-07 16:59 38.29091 27.15205 419 ft 11 kts 166°
2026-05-07 16:59 38.29000 27.15288 417 ft 13 kts 129°
2026-05-07 17:00 38.28948 27.15314 422 ft 12 kts 166°
2026-05-07 17:00 38.28847 27.15344 414 ft 18 kts 167°
2026-05-07 17:00 38.28708 27.15386 416 ft 22 kts 167°
2026-05-07 17:00 38.28560 27.15430 418 ft 22 kts 167°
2026-05-07 17:01 38.28406 27.15477 415 ft 22 kts 167°
2026-05-07 17:01 38.28254 27.15522 414 ft 23 kts 166°
2026-05-07 17:01 38.28100 27.15569 417 ft 23 kts 167°
2026-05-07 17:01 38.27945 27.15616 416 ft 23 kts 166°
2026-05-07 17:02 38.27796 27.15660 415 ft 15 kts 166°
2026-05-07 17:02 38.27765 27.15761 413 ft 14 kts 76°
2026-05-07 17:02 38.27790 27.15885 420 ft 15 kts 67°
2026-05-07 17:02 38.27873 27.15892 419 ft 13 kts 347°
2026-05-07 17:03 38.28105 27.15819 417 ft 67 kts 345°
2026-05-07 17:03 38.28785 27.15618 421 ft 132 kts 347°
2026-05-07 17:03 38.29852 27.15301 575 ft 165 kts 345°
2026-05-07 17:03 38.30937 27.15011 1260 ft 155 kts 343°
2026-05-07 17:04 38.31979 27.14655 1838 ft 160 kts 342°
2026-05-07 17:04 38.33200 27.14288 2129 ft 198 kts 345°
2026-05-07 17:04 38.34731 27.13871 2548 ft 225 kts 346°
2026-05-07 17:04 38.36332 27.13456 2957 ft 251 kts 347°
2026-05-07 17:05 38.38045 27.13270 3893 ft 252 kts
2026-05-07 17:05 38.39689 27.14032 4899 ft 257 kts 35°
2026-05-07 17:05 38.40944 27.15734 5775 ft 267 kts 51°
2026-05-07 17:05 38.42053 27.17678 6691 ft 273 kts 54°
2026-05-07 17:06 38.42508 27.18503 7136 ft 272 kts 53°
2026-05-07 17:06 38.44308 27.22024 8926 ft 279 kts 64°
2026-05-07 17:06 38.44928 27.24410 9910 ft 286 kts 73°
2026-05-07 17:06 38.45409 27.26928 10564 ft 303 kts 75°
2026-05-07 17:07 38.45907 27.29693 10964 ft 328 kts 75°
2026-05-07 17:07 38.46433 27.32608 11571 ft 343 kts 75°
2026-05-07 17:07 38.46739 27.34327 12042 ft 348 kts 76°
2026-05-07 17:07 38.47191 27.37733 12935 ft 358 kts 79°
2026-05-07 17:08 38.47537 27.40958 13760 ft 366 kts 80°
2026-05-07 17:08 38.47875 27.44216 14482 ft 373 kts 80°
2026-05-07 17:08 38.48218 27.47521 15239 ft 379 kts 80°
2026-05-07 17:08 38.48579 27.50917 16050 ft 383 kts 79°
2026-05-07 17:09 38.49020 27.54304 16767 ft 389 kts 78°
2026-05-07 17:09 38.49499 27.57722 17541 ft 394 kts 77°
2026-05-07 17:09 38.49994 27.61232 18305 ft 399 kts 77°
2026-05-07 17:09 38.50421 27.64271 18867 ft 403 kts 77°
2026-05-07 17:10 38.50997 27.68387 19682 ft 407 kts 78°
2026-05-07 17:10 38.51495 27.71959 20385 ft 410 kts 78°
2026-05-07 17:10 38.51994 27.75554 21068 ft 413 kts 78°
2026-05-07 17:10 38.52496 27.79181 21750 ft 416 kts 78°
2026-05-07 17:11 38.53001 27.82834 22400 ft 420 kts 78°
2026-05-07 17:11 38.53510 27.86533 23054 ft 423 kts 78°
2026-05-07 17:11 38.54028 27.90303 23716 ft 427 kts 78°
2026-05-07 17:11 38.54543 27.94055 24243 ft 430 kts 78°
2026-05-07 17:12 38.55061 27.97844 24762 ft 434 kts 78°
2026-05-07 17:12 38.55586 28.01695 25279 ft 437 kts 78°
2026-05-07 17:12 38.56108 28.05531 25786 ft 439 kts 77°
2026-05-07 17:12 38.56632 28.09394 26271 ft 443 kts 77°
2026-05-07 17:13 38.57159 28.13286 26728 ft 446 kts 77°
2026-05-07 17:13 38.57689 28.17214 27184 ft 449 kts 77°
2026-05-07 17:13 38.58220 28.21162 27668 ft 452 kts 77°
2026-05-07 17:13 38.58604 28.25173 28122 ft 457 kts 84°
2026-05-07 17:14 38.58663 28.29270 28549 ft 462 kts 88°
2026-05-07 17:14 38.58625 28.33388 28988 ft 465 kts 88°
2026-05-07 17:14 38.58570 28.37532 29426 ft 468 kts 89°
2026-05-07 17:14 38.58514 28.41701 29867 ft 470 kts 89°
2026-05-07 17:15 38.58458 28.45901 30249 ft 473 kts 88°
2026-05-07 17:15 38.58403 28.50118 30590 ft 476 kts 88°
2026-05-07 17:15 38.58347 28.54356 31001 ft 476 kts 89°
2026-05-07 17:15 38.58290 28.58581 31517 ft 474 kts 89°
2026-05-07 17:16 38.58294 28.62790 31999 ft 471 kts 84°
2026-05-07 17:16 38.58564 28.66958 32467 ft 469 kts 81°
2026-05-07 17:16 38.58938 28.71095 32884 ft 468 kts 80°
2026-05-07 17:16 38.59363 28.75214 33294 ft 467 kts 79°
2026-05-07 17:17 38.59806 28.79327 33730 ft 466 kts 79°
2026-05-07 17:17 38.60249 28.83429 34157 ft 465 kts 79°
2026-05-07 17:17 38.60684 28.87522 34491 ft 465 kts 79°
2026-05-07 17:17 38.61110 28.91622 34797 ft 465 kts 79°
2026-05-07 17:18 38.61528 28.95723 35088 ft 466 kts 79°
2026-05-07 17:18 38.61943 28.99839 35363 ft 467 kts 79°
2026-05-07 17:18 38.62355 29.03967 35613 ft 468 kts 79°
2026-05-07 17:18 38.62765 29.08105 35905 ft 469 kts 79°
2026-05-07 17:19 38.63173 29.12233 36203 ft 468 kts 79°
2026-05-07 17:19 38.63581 29.16377 36490 ft 468 kts 79°
2026-05-07 17:19 38.63987 29.20513 36766 ft 469 kts 79°
2026-05-07 17:19 38.64392 29.24644 37034 ft 469 kts 79°
2026-05-07 17:20 38.64800 29.28821 37313 ft 469 kts 79°
2026-05-07 17:20 38.65203 29.32960 37566 ft 469 kts 79°
2026-05-07 17:20 38.65607 29.37120 37843 ft 469 kts 79°
2026-05-07 17:20 38.66002 29.41215 38099 ft 468 kts 79°
2026-05-07 17:21 38.66400 29.45350 38349 ft 468 kts 79°
2026-05-07 17:21 38.66844 29.49529 38599 ft 467 kts 78°
2026-05-07 17:21 38.67342 29.53631 38836 ft 467 kts 77°
2026-05-07 17:21 38.67870 29.57721 39060 ft 466 kts 77°
2026-05-07 17:22 38.68858 29.65229 39168 ft 467 kts 77°
2026-05-07 17:22 38.69871 29.73075 39172 ft 466 kts 77°
2026-05-07 17:23 38.70917 29.81351 39170 ft 466 kts 77°
2026-05-07 17:23 38.71946 29.89597 39177 ft 466 kts 77°
2026-05-07 17:24 38.72964 29.97800 39178 ft 467 kts 77°
2026-05-07 17:24 38.74018 30.06008 39180 ft 466 kts 76°
2026-05-07 17:25 38.75118 30.14237 39179 ft 466 kts 76°
2026-05-07 17:25 38.76209 30.22410 39178 ft 466 kts 76°
2026-05-07 17:26 38.77289 30.30596 39179 ft 466 kts 76°
2026-05-07 17:26 38.78362 30.38803 39178 ft 466 kts 76°
2026-05-07 17:27 38.79427 30.46999 39181 ft 466 kts 76°
2026-05-07 17:27 38.80769 30.55142 39181 ft 458 kts 65°
2026-05-07 17:28 38.83017 30.62579 39185 ft 455 kts 62°
2026-05-07 17:28 38.85554 30.70225 39180 ft 455 kts 61°
2026-05-07 17:29 38.88062 30.77675 39184 ft 455 kts 61°
2026-05-07 17:29 38.90566 30.85178 39194 ft 455 kts 62°
2026-05-07 17:30 38.93049 30.92682 39185 ft 455 kts 62°
2026-05-07 17:30 38.95525 31.00198 39184 ft 454 kts 62°
2026-05-07 17:31 38.97904 31.07441 39179 ft 454 kts 62°
2026-05-07 17:31 39.00474 31.15280 39183 ft 454 kts 62°
2026-05-07 17:32 39.02944 31.22835 39184 ft 453 kts 62°
2026-05-07 17:32 39.04965 31.29033 39184 ft 452 kts 62°
2026-05-07 17:33 39.07785 31.37703 39182 ft 451 kts 62°
2026-05-07 17:33 39.10191 31.45120 39178 ft 451 kts 62°
2026-05-07 17:34 39.12625 31.52641 39193 ft 450 kts 62°
2026-05-07 17:34 39.15031 31.60096 39178 ft 450 kts 62°
2026-05-07 17:35 39.17433 31.67562 39177 ft 450 kts 62°
2026-05-07 17:35 39.19847 31.75082 39176 ft 450 kts 62°
2026-05-07 17:36 39.21850 31.81340 39186 ft 450 kts 62°
2026-05-07 17:36 39.24242 31.88838 39179 ft 451 kts 62°
2026-05-07 17:37 39.26634 31.96359 39170 ft 451 kts 62°
2026-05-07 17:37 39.29060 32.04011 39178 ft 451 kts 62°
2026-05-07 17:38 39.31435 32.11521 39188 ft 451 kts 63°
2026-05-07 17:38 39.33802 32.19022 39171 ft 451 kts 63°
2026-05-07 17:39 39.36150 32.26487 39172 ft 451 kts 63°
2026-05-07 17:39 39.38518 32.34036 39174 ft 451 kts 63°
2026-05-07 17:40 39.40835 32.41549 39185 ft 452 kts 63°
2026-05-07 17:40 39.43077 32.49139 39181 ft 454 kts 68°
2026-05-07 17:41 39.44361 32.57190 39181 ft 459 kts 76°
2026-05-07 17:41 39.45287 32.65403 39184 ft 460 kts 78°
2026-05-07 17:42 39.46138 32.73637 39188 ft 461 kts 78°
2026-05-07 17:42 39.46984 32.81806 39186 ft 461 kts 78°
2026-05-07 17:43 39.47855 32.90118 39194 ft 460 kts 78°
2026-05-07 17:43 39.48725 32.98327 39182 ft 459 kts 78°
2026-05-07 17:44 39.49596 33.06537 39181 ft 459 kts 78°
2026-05-07 17:44 39.50459 33.14733 39181 ft 459 kts 78°
2026-05-07 17:45 39.51315 33.22941 39181 ft 459 kts 78°
2026-05-07 17:45 39.52160 33.31130 39180 ft 459 kts 78°
2026-05-07 17:46 39.52994 33.39320 39177 ft 458 kts 78°
2026-05-07 17:46 39.53793 33.47237 39175 ft 458 kts 78°
2026-05-07 17:47 39.54671 33.55978 39176 ft 458 kts 78°
2026-05-07 17:47 39.55489 33.64184 39169 ft 458 kts 78°
2026-05-07 17:48 39.56045 33.69792 39175 ft 458 kts 79°
2026-05-07 17:48 39.57066 33.80133 39169 ft 459 kts 79°
2026-05-07 17:49 39.57763 33.87260 39166 ft 459 kts 79°
2026-05-07 17:49 39.58485 33.94684 39168 ft 459 kts 79°